Location: Unspecified
(43.8044°N, 11.0278°E)
Time: 18:54:12
(UTC+02:00)

CZ-3 Stage 3 - Visible Passes

Search period start: 24 October 2014 00:00
Search period end: 02 November 2014 23:00
Orbit: 415 x 34824 km, 30.9° (Epoch: 21 October)

Date Brightness Start Highest point End Pass type
(mag) Time Alt. Az. Time Alt. Az. Time Alt. Az.
24 Oct 7.9 00:00:00 28° SSE 03:57:40 53° SSE 04:29:18 10° E visible
24 Oct 8.5 21:31:37 10° ESE 23:46:29 23° ESE 00:39:00 10° E visible
26 Oct 6.1 00:03:02 10° SSW 06:52:10 54° SSW 07:01:14 10° ESE visible
26 Oct 7.8 20:10:06 10° SSE 02:54:50 55° SSE 03:25:44 10° E visible
27 Oct 8.5 20:14:25 10° ESE 22:42:27 25° ESE 23:36:53 10° E visible
28 Oct 6.1 22:57:10 10° SSW 06:48:28 54° SSW 06:57:25 10° ESE visible
29 Oct 7.8 19:57:09 10° SSE 02:51:49 56° SSE 03:22:02 10° E visible
30 Oct 8.4 19:57:32 10° ESE 22:38:16 26° ESE 23:34:22 10° E visible
31 Oct 6.1 22:51:19 10° SSW 06:44:37 53° SSW 06:53:27 10° SE visible
01 Nov 7.7 19:44:33 10° SSE 02:48:38 57° SSE 03:18:11 10° E visible
02 Nov 9.0 19:40:55 10° ESE 22:33:56 28° ESE 23:00:00 26° ESE visible
